Regional Weather Roundup
Issued by NWS Midland/Odessa, TX

Skip options and go directly to product.
Home | Oldest Version | Next Version | Current Version | All | Text Only | Save Text | Print | Product List | Glossary On

Skip product version selection by date and time.   
290
ASUS44 KMAF 010301
RWRMAF
MIDLAND AREA WEATHER ROUNDUP
NATIONAL WEATHER SERVICE MIDLAND TX
900 PM CST SAT FEB 28 2015

...IN SOUTHWEST TEXAS AND SOUTHEAST NEW MEXICO...

CITY           SKY/WX    TMP DP  RH WIND       PRES   REMARKS
ALPINE         CLEAR     33  32  96 N5        30.11R WCI  29
ANDREWS        CLOUDY    29  29 100 E8        30.15R FOG     WCI  21
ARTESIA        CLOUDY    28  30 100 S12       30.12R WCI  18
BIG SPRING     CLOUDY    29  27  93 NE8       30.20S WCI  21
CARLSBAD       CLOUDY    31  28  89 SE12      30.11R WCI  22
DRYDEN           N/A     39  37  92 SE6       30.15R WCI  35
FORT STOCKTON  CLOUDY    35  35 100 SE9       30.11R WCI  28
GUAD PASS      NOT AVBL
HOBBS          FOG       28  28 100 SE8       30.13R VSB 1/2 WCI  20
MARFA          CLEAR     39  30  70 NW5       30.07R WCI  36
MIDLAND AIRPK  CLOUDY    32  32 100 E5        30.17R FOG     WCI  27
MIDLAND INTL   CLOUDY    31  30  96 E9        30.15R FOG     WCI  23
ODESSA         FOG       31  29  92 E8        30.15R VSB 3/4 WCI  23
PECOS          CLOUDY    33  32  97 NW5       30.15R FOG     WCI  28
PRESIDIO       FAIR      56  35  45 NE10      29.97R
SEMINOLE       CLOUDY   N/A N/A N/A SE7       30.16R FOG
SNYDER         CLOUDY    26  25  96 E8        30.22R FOG     WCI  17
WINK           CLOUDY    35  31  85 E8        30.14R FOG     WCI  29
$$
...OTHER STATIONS IN TEXAS...

CITY           SKY/WX    TMP DP  RH WIND       PRES   REMARKS
ABILENE        CLOUDY    28  26  92 NE3       30.26R FOG
AMARILLO       CLOUDY    22  19  89 S12       30.14R WCI  10
AUSTIN         CLOUDY    35  35 100 N12       30.27R FOG     WCI  27
BROWNSVILLE    LGT RAIN  51  50  96 NW7       30.16R FOG
CORPUS CHRISTI DRIZZLE   52  51  97 N13       30.16R
DALLAS FTW     FRZ DRZL  31  29  92 NE8       30.33R FOG     WCI  23
DEL RIO        CLOUDY    43  42  97 SE3       30.20R FOG
EL PASO        PTCLDY    67  30  25 W17       29.93R
HOUSTON INT    LGT RAIN  53  49  86 NE6       30.24R
LUBBOCK        FOG       23  22  96 SE12      30.14R VSB 1/4 WCI  12
SAN ANGELO     CLOUDY    31  29  92 E8        30.23R FOG     WCI  23
SAN ANTONIO    LGT RAIN  38  36  92 N7        30.22S FOG     WCI  33
WACO           MIX PCPN  32  31  96 N10       30.32R FOG     WCI  24
WICHITA FALLS  NOT AVBL
$$
...OTHER LOCATIONS IN NEW MEXICO...

CITY           SKY/WX    TMP DP  RH WIND       PRES   REMARKS
ALAMAGORDO     PTCLDY    48  28  46 MISG      29.95R
ALBUQUERQUE    MOCLDY    33  28  81 W8        29.96R WCI  26
CANNON AFB     CLOUDY    27  25  94 SW12      30.06R WCI  16
CLOVIS         CLOUDY    25  25 100 S12       30.07R WCI  14
HOLLOMAN AFB   PTCLDY    50  29  44 NW6       29.94R
ROSWELL        CLOUDY    29  24  82 SE6       30.09R WCI  23
RUIDOSO        PTCLDY    45  28  53 SW14      30.02R WCI  38
SANTA FE       LGT RAIN  33  30  88 CALM      29.94S
TRUTH OR CONSE PTCLDY    57  37  47 SW13      29.92R
TUCUMCARI      CLOUDY    26  22  84 SW9       30.06R WCI  17
$$

USA.gov is the U.S. government's official web portal to all federal, state and local government web resources and services.